Regional Weather Roundup
Issued by NWS

Home | Current Version | Previous Version | Graphics & Text | Print | Product List | Glossary On
Versions: 1 2 3 4 5 6 7 8 9 10 11 12 13 14 15 16 17 18 19 20 21 22 23 24 25 26 27 28 29 30 31 32 33 34 35 36 37 38 39 40 41 42 43 44 45 46 47 48 49 50
000
ASUS45 KBOI 292110
RWRID

IDAHO REGIONAL WEATHER ROUNDUP
NATIONAL WEATHER SERVICE BOISE ID
300 PM MDT WED MAR 29 2017

NOTE: "FAIR" INDICATES FEW OR NO CLOUDS BELOW 12000 FEET
WITH NO SIGNIFICANT WEATHER AND/OR OBSTRUCTIONS TO VISIBILITY

IDZ012-014-292200-
SOUTHWEST IDAHO


CITY           SKY/WX    TMP DP  RH WIND       PRES   REMARKS
BOISE          CLOUDY    60  35  39 SE7       30.07F
CALDWELL       CLOUDY    60  39  45 E12       30.05F
MOUNTAIN HOME  PTSUNNY   63  42  46 E5        30.08F
$$

IDZ016-017-292200-
SOUTHCENTRAL IDAHO


CITY           SKY/WX    TMP DP  RH WIND       PRES   REMARKS
BURLEY         PTSUNNY   58  32  37 S10       30.10F
JEROME         CLOUDY    58  33  39 SW6       30.12F
TWIN FALLS     CLOUDY    60  33  36 W9        30.11F
$$

IDZ019>023-292200-
SOUTHEAST IDAHO


CITY           SKY/WX    TMP DP  RH WIND       PRES   REMARKS
IDAHO FALLS    CLOUDY    51  34  52 SW14      30.13F
POCATELLO      CLOUDY    56  34  43 SW14G23   30.13F
REXBURG        CLOUDY    49  32  52 SW18G24   30.13F
$$

IDZ006-010-011-018-031-032-292200-
CENTRAL IDAHO MOUNTAINS


CITY           SKY/WX    TMP DP  RH WIND       PRES   REMARKS
MCCALL         LGT RAIN  39  34  82 SE10      30.06F WCI  32
HAILEY         PTSUNNY   48  36  61 S6        30.13F
STANLEY          N/A     42  32  67 CALM      30.10F
SALMON         CLOUDY    54  32  43 NE3       29.98F
CHALLIS        CLOUDY    53  31  42 N7        30.01F
$$

IDZ002-004-006-007-026-292200-
NORTHERN IDAHO


CITY           SKY/WX    TMP DP  RH WIND       PRES   REMARKS
LEWISTON       LGT RAIN  51  47  86 E5        29.93S
LOWELL           N/A     47  44  90 CALM      30.00F
COEUR D`ALENE  LGT RAIN  44  43  96 S10       29.89F
MULLAN PASS    SNOW      34  32  92 VRB6      29.89S VSB 1/4 WCI  29
$$



USA.gov is the U.S. government's official web portal to all federal, state and local government web resources and services.